Date String (YYYY-MM-DD hh:mm:ss) UTC,Instrument flags,Ambient pressure (hPa),Sample flow (lpm),Bypass flow (lpm),Sample temperature (°C),Ambient temperature (°C),ASC tube jacket temperature (°C),LED temperature (°C),Box temperature (°C),Sample RH (%),Span deviation,Mass concentration (μg/m³),Mass concentration (μg/m³),Mass concentration (μg/m³)
DateTimeUTC,F1_M11,P_M11,Q1_M11,Q2_M11,T1_M11,T2_M11,T3_M11,T4_M11,T5_M11,U1_M11,ZSPAN_M11,X0_M11,X2_M11,X1_M11
2023-03-05 20:00:00,,0814.3,5.00,0.00,21.9,20.5,00.0,30.7,23.7,07.9,0000.0,0004.09,0002.25,0001.38
2023-03-05 20:01:00,,0814.3,5.00,0.00,21.9,20.5,00.0,30.7,23.7,08.2,0000.0,0004.21,0002.26,0001.38
2023-03-05 20:02:00,,0814.3,5.00,0.00,21.9,20.5,00.0,30.7,23.7,07.9,0000.0,0004.43,0002.32,0001.38
2023-03-05 20:03:00,,0814.4,5.00,0.00,21.9,20.5,00.0,30.7,23.7,08.2,0000.0,0004.47,0002.33,0001.38
2023-03-05 20:04:00,,0814.4,5.00,0.00,21.9,20.5,00.0,30.7,23.7,08.1,0000.0,0004.61,0002.38,0001.38
2023-03-05 20:05:00,,0814.5,5.00,0.00,21.9,20.4,00.0,30.7,23.7,08.2,0000.0,0004.47,0002.34,0001.39
2023-03-05 20:06:00,,0814.6,5.00,0.00,21.9,20.4,00.0,30.7,23.7,08.2,0000.0,0004.31,0002.33,0001.40
2023-03-05 20:07:00,,0814.6,4.99,0.00,21.9,20.4,00.0,30.7,23.7,08.4,0000.0,0004.31,0002.34,0001.40
2023-03-05 20:08:00,,0814.4,5.01,0.00,21.9,20.5,00.0,30.7,23.7,08.0,0000.0,0004.55,0002.41,0001.41
2023-03-05 20:09:00,,0814.6,5.00,0.00,21.9,20.5,00.0,30.7,23.6,07.9,0000.0,0004.73,0002.49,0001.42
2023-03-05 20:10:00,,0814.6,5.01,0.00,21.9,20.5,00.0,30.7,23.7,08.2,0000.0,0004.73,0002.50,0001.43
2023-03-05 20:11:00,,0814.6,4.99,0.00,21.9,20.5,00.0,30.7,23.7,07.9,0000.0,0004.89,0002.55,0001.44
2023-03-05 20:12:00,,0814.7,5.01,0.00,21.9,20.6,00.0,30.7,23.8,07.6,0000.0,0004.93,0002.59,0001.45
2023-03-05 20:13:00,,0814.9,5.00,0.00,21.9,20.6,00.0,30.7,23.8,07.4,0000.0,0004.78,0002.55,0001.46
2023-03-05 20:14:00,,0815.0,4.99,0.00,21.9,20.6,00.0,30.7,23.8,07.7,0000.0,0004.66,0002.52,0001.48
2023-03-05 20:15:00,,0815.0,5.00,0.00,22.0,20.7,00.0,30.7,23.8,07.9,0000.0,0004.58,0002.50,0001.49
2023-03-05 20:16:00,,0814.6,4.99,0.00,22.0,20.6,00.0,30.7,23.8,08.2,0000.0,0004.69,0002.54,0001.50
2023-03-05 20:17:00,,0814.5,5.00,0.00,21.9,20.6,00.0,30.7,23.8,07.9,0000.0,0005.21,0002.48,0001.50
2023-03-05 20:18:00,,0814.7,5.01,0.00,21.9,20.5,00.0,30.7,23.8,07.9,0000.0,0005.23,0002.48,0001.50
2023-03-05 20:19:00,,0814.6,5.02,0.00,22.0,20.5,00.0,30.7,23.8,08.2,0000.0,0005.04,0002.43,0001.50
2023-03-05 20:20:00,,0814.5,5.01,0.00,22.0,20.6,00.0,30.7,23.8,08.1,0000.0,0005.44,0002.34,0001.49
2023-03-05 20:21:00,,0814.4,4.99,0.00,22.0,20.6,00.0,30.7,23.8,08.3,0000.0,0005.70,0002.32,0001.47
2023-03-05 20:22:00,,0814.4,4.99,0.00,22.0,20.6,00.0,30.7,23.8,08.2,0000.0,0005.72,0002.32,0001.47
2023-03-05 20:23:00,,0814.4,4.99,0.00,22.0,20.6,00.0,30.7,23.8,08.4,0000.0,0005.58,0002.26,0001.46
2023-03-05 20:24:00,,0814.4,5.01,0.00,22.0,20.7,00.0,30.7,23.8,08.4,0000.0,0005.73,0002.30,0001.47
2023-03-05 20:25:00,,0814.4,5.00,0.00,22.0,20.7,00.0,30.7,23.8,08.4,0000.0,0005.81,0002.33,0001.47
2023-03-05 20:26:00,,0814.4,5.00,0.00,22.0,20.6,00.0,30.7,23.9,08.5,0000.0,0005.75,0002.30,0001.46
2023-03-05 20:27:00,,0814.4,5.00,0.00,22.0,20.6,00.0,30.7,23.9,08.3,0000.0,0005.91,0002.36,0001.46
2023-03-05 20:28:00,,0814.6,5.03,0.00,22.0,20.6,00.0,30.7,23.9,08.0,0000.0,0005.44,0002.35,0001.47
2023-03-05 20:29:00,,0814.5,4.99,0.00,22.0,20.6,00.0,30.7,23.9,07.9,0000.0,0005.56,0002.41,0001.48
2023-03-05 20:30:00,,0814.5,4.99,0.00,22.0,20.6,00.0,30.7,23.9,08.0,0000.0,0005.66,0002.46,0001.49
2023-03-05 20:31:00,,0814.6,5.00,0.00,22.0,20.6,00.0,30.7,23.9,08.1,0000.0,0005.46,0002.52,0001.49
2023-03-05 20:32:00,,0814.8,4.99,0.00,22.0,20.7,00.0,30.7,23.9,08.2,0000.0,0005.17,0002.58,0001.50
2023-03-05 20:33:00,,0814.7,5.01,0.00,22.0,20.7,00.0,30.7,23.8,07.9,0000.0,0005.14,0002.56,0001.49
2023-03-05 20:34:00,,0815.0,4.99,0.00,22.0,20.7,00.0,30.8,23.8,08.3,0000.0,0005.08,0002.54,0001.48
2023-03-05 20:35:00,,0814.7,5.00,0.00,22.0,20.7,00.0,30.8,23.9,08.4,0000.0,0005.03,0002.53,0001.48
2023-03-05 20:36:00,,0814.8,4.99,0.00,22.0,20.8,00.0,30.8,23.9,08.6,0000.0,0005.04,0002.51,0001.48
2023-03-05 20:37:00,,0814.9,5.01,0.00,22.0,20.8,00.0,30.8,23.9,08.3,0000.0,0005.19,0002.56,0001.48
2023-03-05 20:38:00,,0814.9,5.00,0.00,22.1,20.9,00.0,30.8,23.9,07.9,0000.0,0005.07,0002.51,0001.47
2023-03-05 20:39:00,,0814.9,5.00,0.00,22.1,20.9,00.0,30.8,23.9,07.9,0000.0,0005.18,0002.54,0001.47
2023-03-05 20:40:00,,0815.0,5.00,0.00,22.1,20.9,00.0,30.8,23.9,07.6,0000.0,0005.02,0002.51,0001.49
2023-03-05 20:41:00,,0814.6,5.00,0.00,22.1,20.9,00.0,30.8,23.9,07.8,0000.0,0004.94,0002.46,0001.48
2023-03-05 20:42:00,,0814.9,5.00,0.00,22.1,20.9,00.0,30.8,23.9,07.8,0000.0,0004.71,0002.41,0001.49
2023-03-05 20:43:00,,0814.8,5.00,0.00,22.1,20.9,00.0,30.8,23.9,07.8,0000.0,0004.49,0002.34,0001.51
2023-03-05 20:44:00,,0814.9,5.01,0.00,22.1,20.9,00.0,30.8,23.9,07.9,0000.0,0004.34,0002.31,0001.50
2023-03-05 20:45:00,,0814.8,5.00,0.00,22.1,20.9,00.0,30.8,23.9,07.8,0000.0,0004.22,0002.29,0001.49
2023-03-05 20:46:00,,0814.8,5.00,0.00,22.1,20.9,00.0,30.8,23.9,07.9,0000.0,0004.17,0002.28,0001.48
2023-03-05 20:47:00,,0814.9,4.99,0.00,22.1,20.9,00.0,30.8,23.9,08.1,0000.0,0004.15,0002.28,0001.48
2023-03-05 20:48:00,,0814.9,5.00,0.00,22.1,20.9,00.0,30.8,23.9,08.5,0000.0,0003.98,0002.23,0001.49
2023-03-05 20:49:00,,0814.9,5.01,0.00,22.1,20.9,00.0,30.8,23.9,08.6,0000.0,0003.86,0002.19,0001.48
2023-03-05 20:50:00,,0814.9,5.00,0.00,22.1,20.9,00.0,30.8,23.9,08.7,0000.0,0003.76,0002.18,0001.49
2023-03-05 20:51:00,,0814.9,5.00,0.00,22.1,20.9,00.0,30.8,24.0,08.9,0000.0,0003.66,0002.18,0001.47
2023-03-05 20:52:00,,0814.8,5.00,0.00,22.1,20.9,00.0,30.9,24.0,08.9,0000.0,0003.73,0002.20,0001.47
2023-03-05 20:53:00,,0814.9,5.01,0.00,22.1,20.9,00.0,30.9,24.0,09.0,0000.0,0003.84,0002.21,0001.46
2023-03-05 20:54:00,,0814.7,5.00,0.00,22.1,20.9,00.0,30.9,24.0,09.0,0000.0,0004.17,0002.30,0001.45
2023-03-05 20:55:00,,0815.1,5.00,0.00,22.2,20.9,00.0,30.9,24.0,08.9,0000.0,0004.27,0002.32,0001.45
2023-03-05 20:56:00,,0814.7,5.00,0.00,22.2,21.0,00.0,30.9,24.0,09.0,0000.0,0004.38,0002.32,0001.46
2023-03-05 20:57:00,,0814.9,5.00,0.00,22.2,21.0,00.0,30.9,24.0,09.2,0000.0,0004.46,0002.36,0001.46
2023-03-05 20:58:00,,0814.9,5.00,0.00,22.2,21.0,00.0,30.9,24.0,09.3,0000.0,0004.46,0002.38,0001.46
2023-03-05 20:59:00,,0814.9,4.99,0.00,22.2,21.0,00.0,30.9,24.1,09.4,0000.0,0004.49,0002.38,0001.44
